Вернуться в каталог

STARLINK-30817

АктивенСвязьVLEO
NORAD 58238·PAYLOAD·🇺🇸 United States

Запущен Nov 8, 2023 с Cape Canaveral Space Force Station

Loading…

Ближайшие Пролёты (ближайшие 24 часа)

TLE

СвежийSource: CelesTrak SupGP

Эпоха: Sep 14, 2026, 21:06 UTC

1 58238C 23171J   26257.87965278 -.00012161  00000+0 -44055-3 0  2574
2 58238  43.0007 297.0278 0001483 265.3683 174.0006 15.27577869    12

Отслеживайте STARLINK-30817 в реальном времени с AllMySat

Download on the App Store